Location: White Sands National Monument
(32.8140°N, 106.2665°W)
Time: 08:50:47
(UTC-06:00)

Daily predictions for brighter satellites

Satellite Brightness Start Highest point End
(mag) Time Altitude Azimuth Time Altitude Azimuth Time Altitude Azimuth
Cosmos 1076 Rocket 4.0 20:39:39 10° SSW 20:43:51 65° W 20:48:08 10° N
AVUM R/B 3.4 20:44:36 10° SSE 20:46:31 26° ESE 20:48:33 10° NE
Cosmos 1553 Rocket 4.4 20:44:45 10° N 20:50:54 48° E 20:56:55 10° SSE
Cosmos 2322 Rocket 2.4 20:48:18 10° NNW 20:53:50 58° ENE 20:59:20 10° SSE
YAOGAN 11 4.2 20:53:42 10° SSE 20:57:54 58° ENE 21:02:11 10° N
In-Cosmos 22 4.3 20:54:20 10° S 21:00:03 76° E 21:05:49 10° NNE
Envisat 4.1 20:56:43 10° SE 21:00:59 28° ENE 21:05:16 10° NNE
Cosmos 1980 Rocket 3.4 20:57:21 10° NW 21:02:38 41° WSW 21:07:54 10° S
Cosmos 2360 Rocket 3.6 20:58:40 10° N 21:03:10 24° ENE 21:07:20 11° ESE
FENGYUN 3A 3.9 20:58:53 10° S 21:04:17 74° WSW 21:09:43 10° NNW
SL-16 R/B 2.3 20:59:01 10° NNW 21:04:41 68° ENE 21:10:18 10° SSE
ERS-1 Rocket 3.2 20:59:50 10° SSE 21:04:43 53° ENE 21:09:37 10° N
Cosmos 1908 4.5 21:04:38 10° NNE 21:07:56 25° E 21:10:23 14° SE
H-2A R/B 2.8 21:05:11 11° SE 21:09:12 40° ENE 21:13:26 10° N
GPS 2-04 Rocket1 3.4 21:08:58 10° W 21:13:12 49° SSW 21:16:24 16° SE
Cosmos 1328 Rocket 3.5 21:11:10 10° N 21:15:37 78° E 21:20:02 10° S
Cosmos 1674 3.1 21:12:06 10° SSE 21:15:43 44° E 21:19:24 10° NNE
Cosmos 1777 Rocket 4.1 21:12:06 10° SSW 21:17:22 84° WNW 21:22:40 10° NNE
CZ-2C R/B 0.7 21:22:17 27° NNE 21:22:17 27° NNE 21:23:07 10° N
DELTA 2 R/B (1) 4.3 21:16:44 10° WNW 21:22:06 49° NNE 21:27:28 10° E
ATLAS CENTAUR R/B 2.7 21:19:58 10° NW 21:24:00 36° WSW 21:27:42 10° S
Cosmos 1939 Rocket 2.9 21:22:28 16° SSE 21:25:25 57° ENE 21:29:16 10° N
NOSS 3-1 (C) 3.6 21:21:35 10° S 21:26:56 42° ESE 21:32:42 10° NE
Hubble Space Telescope 3.0 21:28:35 10° S 21:28:35 10° S 21:28:35 10° S
Cosmos 405 3.5 21:28:45 10° N 21:32:13 44° E 21:33:50 26° SE
Cosmos 1833 4.4 21:26:59 10° SSW 21:32:42 77° WNW 21:38:25 10° NNE
Cosmos 1500 Rocket 4.1 21:28:38 10° SSW 21:32:55 60° W 21:37:17 10° N
Cosmos 2228 Rocket 4.1 21:29:26 10° NNW 21:33:44 46° W 21:38:04 10° SSW
YAOGAN 6 4.0 21:35:21 20° E 21:36:15 22° ENE 21:39:08 10° NNE
S3M 4.3 21:31:35 10° NNW 21:37:38 66° W 21:43:42 10° S
Cosmos 1437 Rocket 2.6 21:34:38 10° N 21:38:28 86° E 21:40:57 21° S
H-2A R/B 4.2 21:39:08 10° E 21:41:02 12° ENE 21:43:03 10° NE
CZ-4 SHROUD 3.8 21:40:50 34° ESE 21:41:33 40° ENE 21:44:31 10° N
Delta 2 Rocket 3.4 21:46:25 10° W 21:49:58 55° N 21:52:08 20° ENE
Meteor 2-2 Rocket 4.5 21:44:24 10° N 21:50:25 78° W 21:55:27 15° S
Cosmos 1680 Rocket 3.7 21:47:08 10° N 21:52:18 56° ENE 21:54:43 30° SE
COSMOS 2428 3.8 21:47:51 10° N 21:52:46 29° ENE 21:55:02 22° E
SPOT 1/Viking Rocket 4.2 21:50:46 27° ESE 21:52:50 38° ENE 21:57:34 10° N
OAO 2 Rocket 3.4 21:47:49 10° WSW 21:53:02 60° SSE 21:57:14 16° E
CZ-4B R/B 3.6 21:49:36 10° NNE 21:54:47 57° E 21:57:51 24° S
Cosmos 923 Rocket 3.9 21:51:15 10° NNW 21:56:28 84° ENE 21:59:10 29° SSE
MetOp-A 4.2 21:54:16 28° SSE 21:57:03 65° ENE 22:02:22 10° N
Cosmos 1328 3.7 21:57:22 24° S 21:59:42 83° W 22:03:40 10° N
Cosmos 1898 Rocket 3.7 21:59:20 32° SSE 22:01:15 46° ESE 22:06:12 10° NNE
ARGOS 3.8 21:59:48 29° ESE 22:01:44 40° ENE 22:06:44 10° N
CZ-4 R/B 4.1 21:58:31 10° NNE 22:03:14 47° E 22:04:32 37° SE
Cosmos 2219 Rocket 3.9 22:00:59 10° NNE 22:04:43 18° ENE 22:06:29 16° E
Cosmos 2150 Rocket 4.2 22:03:12 29° SSE 22:05:45 54° ESE 22:11:04 10° NNE
Cosmos 2151 3.5 22:03:19 14° SSW 22:06:47 55° W 22:10:55 10° N
USA 245 4.1 22:09:33 24° NNE 22:09:33 24° NNE 22:10:48 10° N
Sich 1 3.2 22:11:22 47° ESE 22:11:59 52° E 22:16:16 10° NNE
Tiangong 1 2.1 22:10:14 10° W 22:13:13 44° NNW 22:14:50 22° NE
SL-08 RB Rocket 4.3 22:12:52 37° E 22:13:27 39° ENE 22:17:37 10° N
Cosmos 1633 Rocket 3.2 22:13:56 49° ESE 22:14:22 52° E 22:18:37 10° NNE
Cosmos 1726 2.9 22:14:33 10° N 22:17:46 39° ENE 22:17:46 39° ENE
Cosmos 2219 3.9 22:16:34 10° SW 22:22:11 55° WNW 22:27:50 10° N
SL-14 R/B 3.1 22:23:59 75° S 22:24:18 87° E 22:28:18 10° N
Cosmos 1703 4.2 22:25:25 35° ENE 22:25:25 35° ENE 22:28:12 10° NNE
SPOT 5 3.5 22:23:11 28° SSW 22:25:09 46° W 22:29:40 10° NNW
SWAS 4.3 22:22:05 10° NNW 22:26:25 89° E 22:26:53 70° SSE
Cosmos 1151 Rocket 4.5 22:22:35 10° NNW 22:26:28 33° W 22:28:43 20° SW
Cosmos 2058 3.5 22:25:16 31° SW 22:26:56 53° W 22:30:57 10° N
Cosmos 1271 Rocket 4.0 22:24:12 10° NNE 22:26:53 29° NE 22:26:53 29° NE
Cosmos 1805 Rocket 4.1 22:27:06 29° SSW 22:29:10 56° W 22:33:32 10° N
NOSS 3-1 (A) 3.4 22:24:29 10° SSW 22:30:15 79° WNW 22:36:35 10° NNE
Cosmos 2082 4.2 22:34:33 41° E 22:34:33 41° E 22:39:34 10° NE
Cosmos 2237 Rocket 3.7 22:30:39 10° N 22:34:58 21° ENE 22:36:00 20° ENE
Cosmos 2322 4.2 22:29:58 10° NNW 22:35:30 53° WSW 22:37:34 35° SSW
Cosmos 2315 Rocket 4.2 22:29:31 10° NNW 22:35:39 66° W 22:38:37 32° SSW
Meteor 1-27 4.1 22:33:01 10° N 22:38:43 86° W 22:40:12 51° S
USA 32 4.0 22:36:25 10° N 22:41:40 65° E 22:42:08 62° ESE
NOAA 11 4.1 22:43:47 56° S 22:44:59 82° WSW 22:50:28 10° NNW
Cosmos 1241 Rocket 4.3 22:43:50 53° SSE 22:45:00 64° ESE 22:51:09 10° NNE
Meteor 1-4 Rocket 3.6 22:41:32 10° N 22:44:12 41° NNE 22:44:12 41° NNE
Cosmos 2360 Rocket 3.2 22:42:01 10° NW 22:47:14 39° WSW 22:49:07 30° SW
Meteor 2-10 4.3 22:43:33 10° N 22:49:12 58° E 22:49:41 56° ESE
Cosmos 1707 Rocket 4.1 22:48:06 10° NNW 22:52:18 49° W 22:52:39 48° WSW
ATLAS 2AS CENTAUR R/B 2.9 22:50:45 48° SSE 22:52:24 58° ESE 23:00:07 10° NE
Cosmos 1626 4.0 22:55:19 24° NNE 22:55:19 24° NNE 22:57:00 10° NNE
IGS 5A 4.4 22:58:25 40° NNE 22:58:25 40° NNE 23:01:28 10° N
Cosmos 220 Rocket 4.3 22:58:39 64° WNW 22:58:39 64° WNW 23:02:59 10° N
Landsat 7 3.8 23:01:33 82° WNW 23:01:33 82° WNW 23:06:11 10° NNW
Cosmos 1937 Rocket 3.8 23:00:08 45° SW 23:01:32 62° WNW 23:06:43 10° N
Nadezhda 1 Rocket 3.9 22:55:32 10° N 23:01:35 64° E 23:02:05 62° ESE
Cosmos 1470 Rocket 4.0 23:05:53 56° N 23:05:53 56° N 23:09:22 10° N
Cosmos 1933 Rocket 4.0 23:07:06 60° N 23:07:06 60° N 23:10:48 10° N
Cosmos 1300 4.5 23:03:58 10° NNW 23:07:01 27° W 23:07:01 27° W
Cosmos 1745 Rocket 4.1 23:06:59 50° SSW 23:08:38 72° W 23:14:49 10° N
DELTA 2 R/B (1) 3.6 23:03:13 10° WNW 23:08:22 68° WSW 23:08:22 68° WSW
Cosmos 2227 Rocket 2.0 23:08:49 79° SSW 23:09:12 89° WNW 23:14:53 10° NNE
Cosmos 292 Rocket 3.9 23:05:49 10° NNW 23:09:59 68° NNW 23:09:59 68° NNW
Cosmos 990 Rocket 4.1 23:13:45 67° W 23:13:57 68° WNW 23:19:05 10° N
ATLAS 3B R/B 4.1 23:09:33 10° N 23:15:05 25° NE 23:17:16 21° ENE
Cosmos 1709 Rocket 4.2 23:17:24 54° ENE 23:17:24 54° ENE 23:22:58 10° NNE
Terra 2.1 23:17:55 66° NNW 23:17:55 66° NNW 23:22:02 10° NNW
Spot 4 4.2 23:18:40 61° NNE 23:18:40 61° NNE 23:22:45 10° N
H-2A R/B 2.1 23:19:46 73° W 23:19:46 73° W 23:25:07 10° NNW
Cosmos 2333 Rocket 2.3 23:19:45 10° NNW 23:25:14 68° NE 23:25:14 68° NE
SL-16 R/B 3.6 23:23:03 10° N 23:27:44 26° ENE 23:27:44 26° ENE
Cosmos 1455 4.1 23:26:18 10° N 23:28:13 28° NNW 23:28:13 28° NNW
NOSS 0 Rocket 3.8 23:27:13 10° NNW 23:33:18 87° NW 23:33:18 87° NW
Cosmos 2297 Rocket 2.3 23:36:45 73° NW 23:36:45 73° NW 23:42:06 10° NNE
COSMOS 2428 3.9 23:31:59 10° NW 23:36:55 31° WSW 23:37:03 31° WSW
OAO 2 Rocket 4.3 23:32:36 10° W 23:36:15 44° W 23:36:15 44° W
Cosmos 2181 Rocket 4.2 23:40:17 10° N 23:46:15 64° ENE 23:46:15 64° ENE
Cosmos 2219 Rocket 2.8 23:43:32 10° NNW 23:48:13 49° WNW 23:48:13 49° WNW
Cosmos 1125 Rocket 4.1 23:50:16 54° N 23:50:16 54° N 23:54:23 10° NNE
SeaSat 1 3.7 23:52:14 34° NE 23:52:14 34° NE 23:55:50 10° N
